This is the latest recevied weather packets stored in our database for station/object DG4MJS-10. If no packets are shown the sender has not sent any weather packets the latest 10 day(s).
| Time | Temp. | Humidity | Pressure | Rain* | Wind** | Luminosity | Snow |
|---|---|---|---|---|---|---|---|
| 1778094017 | 15.56° C | 59% | 1008.9 hPa | - | - | - | - |
| 1778093116 | 15.56° C | 60% | 1008.8 hPa | - | - | - | - |
| 1778092216 | 15.56° C | 59% | 1008.5 hPa | - | - | - | - |
| 1778091316 | 15.56° C | 58% | 1008.4 hPa | - | - | - | - |
| 1778090416 | 15.56° C | 59% | 1008.1 hPa | - | - | - | - |
| 1778089515 | 15.56° C | 58% | 1007.8 hPa | - | - | - | - |
| 1778088615 | 15.56° C | 60% | 1007.6 hPa | - | - | - | - |
| 1778087715 | 16.11° C | 62% | 1007.2 hPa | - | - | - | - |
| 1778086815 | 16.11° C | 63% | 1007 hPa | - | - | - | - |
| 1778085915 | 16.11° C | 65% | 1007.1 hPa | - | - | - | - |
| 1778085015 | 16.11° C | 67% | 1006.6 hPa | - | - | - | - |
| 1778084116 | 16.11° C | 67% | 1006.5 hPa | - | - | - | - |
| 1778083216 | 17.22° C | 64% | 1006.6 hPa | - | - | - | - |
| 1778082316 | 17.22° C | 54% | 1005.4 hPa | - | - | - | - |
| 1778081416 | 17.78° C | 50% | 1005 hPa | - | - | - | - |
| 1778080516 | 17.78° C | 53% | 1004.5 hPa | - | - | - | - |
| 1778079616 | 17.22° C | 55% | 1004.4 hPa | - | - | - | - |
| 1778078716 | 17.22° C | 55% | 1004.9 hPa | - | - | - | - |
| 1778077816 | 17.22° C | 55% | 1005.2 hPa | - | - | - | - |
| 1778076916 | 17.22° C | 55% | 1005.2 hPa | - | - | - | - |
| 1778076016 | 16.67° C | 54% | 1005.2 hPa | - | - | - | - |
| 1778075116 | 17.22° C | 52% | 1005.2 hPa | - | - | - | - |
| 1778074215 | 17.22° C | 52% | 1005.1 hPa | - | - | - | - |
| 1778073315 | 17.22° C | 51% | 1005 hPa | - | - | - | - |
| 1778072415 | 17.22° C | 51% | 1004.9 hPa | - | - | - | - |
* Rain since midnight (hover to see other rain measurements)
** Current wind speed in m/s (hover to see current wind gust speed)